Location: Eaton
(41.3139°N, 82.0207°W)
Time: 16:50:33
(UTC+00:00)

Cosmos 1763 Rocket - Pass Details

Date: 17 June 2021
Orbit: 732 x 781 km, 74.0° (Epoch: 02 August)

Event Time Altitude Azimuth Distance (km) Brightness Sun altitude
Exits shadow 06:35:29 63° 166° (SSE) 820 3.3 -23.5°
Maximum altitude 06:36:12 75° 107° (ESE) 764 3.4 -23.4°
Drops below altitude 10° 06:41:18 10° 23° (NNE) 2,260 7.0 -23.2°
Sets 06:43:41 0° 22° (NNE) 3,194 8.2 -23.0°
